Find Starlink 11349

NORAD ID: 61544 Int'l Des: 2024-184 Owner: SPXS Country: US Constellation: starlink operational
LEOCIRCULAR

Live-Position

3D-Globus wird geladen...

Über Starlink 11349

Beschreibung wird geladen...

Nächste Überflüge

Passes for default location (London). Set your location on the main map for personalized predictions.

Höhenverlauf

Loading altitude history...

Zweizeiliger Elementsatz

1 61544U 24184N 26126.49039816 -.00003296 00000-0 -22374-4 0 9990
2 61544 53.1584 311.4681 0001039 72.1375 287.9756 15.69690574 89496
Epoch: 6. Mai 2026 • Age: 6 hours

Aktueller Status

Höhe 361.0 km
Geschwindigkeit 7.70 km/s
Subsatellitenpunkt 30.77°N, 158.84°W
Startdatum 15. Okt. 2024
Alter 1.5 years
Typ internet

Technische Details

Klassifizierung Payload
Masse 960.00 kg
Trockenmasse 910.00 kg
Gesamtmasse 960.00 kg
Länge 0.30 m
Durchmesser 4.10 m
Spannweite 29.00 m
Form Box + pan
Hersteller SPXS
Bus-Typ Starlink V2MD
Phasenstatus In Orbit
Besitzer/Staat SPXS/US

Most Searched